IRIDIUM 60 [P]

Last updated on Tue Mar 05 2019 03:11:07 GMT+0000 (Coordinated Universal Time)

1 25276U 98019E 19063.54674911 .00002203 00000-0 58986-4 0 9992 2 25276 86.3962 25.4466 0254424 171.7477 188.8074 15.10510966 95701

Satellite not in orbit

IRIDIUM 60 [P]